QPF
0.00 0.00 0.00 0.00 0.00 0.00 0.00 0.00 0.00 0.00 0.00 0.00 0.00 0.00 0.00 0.00 0.00 0.00 0.00 0.00 0.00 0.00 0.00 0.00 0.00 0.00 0.01 0.01 0.00 0.00 0.00 0.00 0.00 0.00 0.00 0.00 0.01 0.01 0.02 0.02 0.02 0.02 0.05
0.00 0.00 0.00 0.00 0.00 0.00 0.00 0.00 0.00 0.00 0.00 0.00 0.00 0.00 0.00 0.00 0.00 0.00 0.00 0.00 0.00 0.00 0.00 0.00 0.00 0.00 0.00 0.00 0.00 0.00 0.00 0.00 0.00 0.00 0.01 0.01 0.01 0.02 0.02 0.01 0.00 0.02 0.05
0.00 0.00 0.00 0.00 0.00 0.00 0.00 0.00 0.00 0.00 0.00 0.00 0.00 0.00 0.00 0.00 0.00 0.00 0.00 0.00 0.00 0.00 0.00 0.00 0.00 0.00 0.00 0.00 0.00 0.00 0.00 0.00 0.00 0.01 0.00 0.00 0.01 0.03 0.03 0.01 0.01 0.03 0.04
0.00 0.00 0.00 0.00 0.00 0.00 0.00 0.00 0.00 0.00 0.00 0.00 0.00 0.00 0.00 0.00 0.00 0.00 0.00 0.00 0.00 0.00 0.00 0.00 0.00 0.00 0.00 0.00 0.00 0.00 0.00 0.00 0.00 0.00 0.00 0.00 0.01 0.03 0.03 0.02 0.01 0.02 0.03
0.00 0.00 0.00 0.00 0.00 0.00 0.00 0.00 0.00 0.00 0.00 0.00 0.00 0.00 0.00 0.00 0.00 0.00 0.00 0.00 0.00 0.00 0.00 0.00 0.00 0.00 0.00 0.00 0.00 0.00 0.00 0.00 0.00 0.00 0.00 0.00 0.01 0.02 0.01 0.01 0.01 0.01 0.01
0.00 0.00 0.00 0.00 0.00 0.00 0.00 0.00 0.00 0.00 0.00 0.00 0.00 0.00 0.00 0.00 0.00 0.00 0.00 0.00 0.00 0.00 0.00 0.00 0.00 0.00 0.00 0.00 0.00 0.00 0.00 0.01 0.01 0.00 0.00 0.00 0.00 0.02 0.01 0.01 0.01 0.01 0.01
0.00 0.00 0.00 0.01 0.00 0.00 0.00 0.00 0.00 0.00 0.00 0.00 0.00 0.00 0.00 0.00 0.00 0.00 0.00 0.00 0.00 0.00 0.00 0.00 0.00 0.00 0.00 0.00 0.00 0.00 0.00 0.01 0.01 0.00 0.00 0.00 0.00 0.01 0.01 0.01 0.01 0.01 0.01
0.00 0.00 0.01 0.01 0.01 0.00 0.00 0.00 0.00 0.00 0.00 0.01 0.01 0.01 0.01 0.01 0.01 0.01 0.01 0.01 0.00 0.00 0.00 0.00 0.00 0.01 0.00 0.00 0.00 0.00 0.00 0.01 0.00 0.00 0.00 0.00 0.01 0.01 0.01 0.01 0.01 0.01 0.01
0.00 0.00 0.01 0.01 0.01 0.01 0.01 0.01 0.01 0.01 0.01 0.01 0.01 0.01 0.01 0.01 0.01 0.01 0.01 0.01 0.01 0.01 0.00 0.00 0.00 0.00 0.01 0.01 0.00 0.00 0.00 0.01 0.00 0.00 0.00 0.01 0.01 0.02 0.02 0.02 0.01 0.01 0.00
0.01 0.01 0.01 0.01 0.01 0.01 0.01 0.01 0.01 0.01 0.01 0.01 0.01 0.01 0.01 0.01 0.01 0.01 0.01 0.01 0.01 0.01 0.01 0.01 0.01 0.01 0.01 0.01 0.01 0.01 0.01 0.01 0.00 0.01 0.01 0.01 0.01 0.02 0.03 0.02 0.02 0.01 0.01
0.01 0.01 0.01 0.01 0.01 0.01 0.01 0.01 0.02 0.02 0.01 0.01 0.01 0.01 0.01 0.01 0.01 0.01 0.01 0.01 0.01 0.03 0.04 0.04 0.04 0.03 0.02 0.01 0.01 0.01 0.01 0.00 0.00 0.00 0.02 0.01 0.01 0.02 0.04 0.04 0.03 0.02 0.01
0.01 0.01 0.01 0.01 0.01 0.02 0.02 0.02 0.03 0.03 0.02 0.02 0.01 0.02 0.02 0.02 0.02 0.02 0.02 0.04 0.06 0.10 0.12 0.11 0.10 0.09 0.07 0.04 0.03 0.02 0.01 0.01 0.01 0.00 0.01 0.01 0.01 0.03 0.06 0.06 0.04 0.03 0.03
0.04 0.03 0.02 0.02 0.03 0.03 0.05 0.06 0.04 0.08 0.06 0.03 0.02 0.03 0.03 0.03 0.03 0.03 0.04 0.05 0.09 0.12 0.14 0.17 0.18 0.17 0.14 0.11 0.07 0.05 0.04 0.04 0.02 0.02 0.02 0.02 0.03 0.04 0.08 0.09 0.07 0.05 0.04
0.07 0.06 0.06 0.09 0.11 0.16 0.16 0.09 0.06 0.12 0.09 0.07 0.05 0.06 0.05 0.06 0.06 0.07 0.06 0.06 0.09 0.13 0.16 0.19 0.20 0.19 0.20 0.18 0.14 0.11 0.08 0.05 0.04 0.04 0.03 0.04 0.05 0.06 0.10 0.14 0.11 0.08 0.06
0.19 0.16 0.17 0.21 0.19 0.23 0.17 0.14 0.16 0.20 0.17 0.14 0.12 0.09 0.09 0.10 0.11 0.12 0.13 0.14 0.16 0.18 0.21 0.22 0.22 0.25 0.26 0.24 0.23 0.18 0.12 0.08 0.07 0.06 0.04 0.04 0.05 0.06 0.11 0.16 0.16 0.13 0.09
0.21 0.24 0.24 0.22 0.25 0.27 0.29 0.32 0.32 0.25 0.20 0.17 0.15 0.13 0.14 0.13 0.14 0.17 0.18 0.18 0.16 0.14 0.15 0.15 0.15 0.21 0.25 0.25 0.24 0.21 0.16 0.12 0.09 0.08 0.06 0.05 0.06 0.07 0.09 0.14 0.17 0.16 0.13
0.21 0.23 0.25 0.30 0.36 0.40 0.38 0.40 0.36 0.29 0.27 0.21 0.17 0.15 0.14 0.14 0.13 0.15 0.14 0.12 0.09 0.07 0.08 0.09 0.12 0.17 0.20 0.22 0.22 0.21 0.18 0.12 0.08 0.08 0.08 0.08 0.05 0.07 0.11 0.13 0.15 0.16 0.17
0.19 0.22 0.30 0.32 0.35 0.36 0.37 0.39 0.30 0.25 0.21 0.17 0.14 0.11 0.09 0.08 0.08 0.08 0.07 0.07 0.06 0.06 0.08 0.10 0.12 0.13 0.14 0.16 0.14 0.14 0.16 0.15 0.11 0.09 0.09 0.08 0.06 0.05 0.07 0.12 0.14 0.15 0.17
0.17 0.20 0.23 0.27 0.28 0.27 0.29 0.29 0.24 0.18 0.14 0.11 0.08 0.06 0.05 0.05 0.05 0.05 0.06 0.07 0.07 0.07 0.08 0.08 0.08 0.08 0.09 0.12 0.12 0.12 0.14 0.16 0.14 0.12 0.09 0.07 0.06 0.05 0.06 0.09 0.13 0.14 0.18
0.12 0.14 0.16 0.19 0.18 0.17 0.15 0.14 0.12 0.11 0.09 0.08 0.05 0.03 0.03 0.03 0.03 0.03 0.03 0.03 0.03 0.04 0.05 0.05 0.06 0.07 0.08 0.12 0.15 0.12 0.09 0.10 0.11 0.10 0.08 0.06 0.06 0.05 0.06 0.07 0.08 0.10 0.13
0.08 0.08 0.11 0.11 0.10 0.10 0.08 0.06 0.06 0.04 0.04 0.04 0.03 0.02 0.02 0.01 0.01 0.01 0.01 0.01 0.01 0.01 0.01 0.01 0.02 0.03 0.05 0.09 0.12 0.10 0.08 0.07 0.08 0.06 0.06 0.06 0.06 0.05 0.06 0.07 0.06 0.06 0.06
0.03 0.04 0.05 0.05 0.04 0.04 0.03 0.02 0.01 0.01 0.01 0.01 0.01 0.01 0.01 0.01 0.01 0.00 0.00 0.00 0.00 0.00 0.00 0.00 0.01 0.02 0.03 0.06 0.09 0.11 0.09 0.08 0.06 0.05 0.05 0.05 0.05 0.05 0.06 0.05 0.06 0.05 0.06
0.01 0.01 0.02 0.02 0.02 0.01 0.01 0.00 0.00 0.00 0.00 0.00 0.00 0.00 0.00 0.00 0.00 0.00 0.00 0.00 0.00 0.00 0.00 0.00 0.01 0.02 0.03 0.06 0.09 0.12 0.11 0.08 0.07 0.06 0.05 0.05 0.06 0.07 0.06 0.05 0.05 0.06 0.06
0.00 0.00 0.00 0.00 0.00 0.00 0.00 0.00 0.00 0.00 0.00 0.00 0.00 0.00 0.00 0.00 0.00 0.00 0.00 0.00 0.00 0.00 0.00 0.00 0.00 0.01 0.01 0.03 0.05 0.08 0.10 0.09 0.09 0.09 0.07 0.06 0.07 0.08 0.06 0.05 0.04 0.04 0.06
0.00 0.00 0.00 0.00 0.00 0.00 0.00 0.00 0.00 0.00 0.00 0.00 0.00 0.00 0.00 0.00 0.00 0.00 0.00 0.00 0.00 0.00 0.00 0.00 0.00 0.01 0.02 0.02 0.04 0.05 0.07 0.08 0.08 0.08 0.07 0.07 0.06 0.07 0.07 0.06 0.05 0.05 0.04
0.00 0.00 0.00 0.00 0.00 0.00 0.00 0.00 0.00 0.00 0.00 0.00 0.00 0.00 0.00 0.00 0.00 0.00 0.00 0.00 0.00 0.00 0.00 0.00 0.00 0.00 0.01 0.03 0.04 0.06 0.08 0.10 0.08 0.08 0.07 0.08 0.08 0.07 0.07 0.07 0.05 0.04 0.04
MSLP
1010.77 1010.58 1010.53 1010.64 1010.89 1011.24 1011.60 1011.93 1012.19 1012.36 1012.47 1012.56 1012.69 1012.88 1013.16 1013.51 1013.89 1014.27 1014.60 1014.87 1015.06 1015.19 1015.29 1015.38 1015.49 1015.61 1015.75 1015.90 1016.02 1016.12 1016.19 1016.25 1016.30 1016.38 1016.48 1016.63 1016.79 1016.98 1017.16 1017.34 1017.50 1017.65 1017.80
1010.49 1010.39 1010.43 1010.62 1010.94 1011.32 1011.72 1012.06 1012.32 1012.50 1012.63 1012.75 1012.92 1013.16 1013.48 1013.85 1014.23 1014.59 1014.89 1015.10 1015.25 1015.34 1015.42 1015.52 1015.64 1015.79 1015.96 1016.12 1016.25 1016.34 1016.40 1016.44 1016.48 1016.55 1016.66 1016.82 1017.01 1017.21 1017.40 1017.59 1017.75 1017.89 1018.04
1010.17 1010.17 1010.29 1010.57 1010.96 1011.40 1011.84 1012.21 1012.50 1012.70 1012.86 1013.01 1013.21 1013.48 1013.82 1014.19 1014.56 1014.88 1015.12 1015.27 1015.36 1015.42 1015.48 1015.58 1015.72 1015.90 1016.10 1016.28 1016.43 1016.53 1016.59 1016.62 1016.67 1016.75 1016.87 1017.04 1017.24 1017.46 1017.66 1017.85 1018.01 1018.15 1018.30
1009.89 1009.97 1010.18 1010.54 1011.01 1011.51 1012.00 1012.41 1012.73 1012.95 1013.13 1013.31 1013.53 1013.81 1014.14 1014.49 1014.82 1015.08 1015.26 1015.36 1015.40 1015.43 1015.48 1015.58 1015.75 1015.96 1016.20 1016.41 1016.58 1016.70 1016.77 1016.82 1016.87 1016.97 1017.11 1017.29 1017.51 1017.73 1017.94 1018.12 1018.28 1018.42 1018.57
1009.71 1009.86 1010.15 1010.58 1011.12 1011.69 1012.22 1012.67 1013.00 1013.24 1013.43 1013.60 1013.82 1014.08 1014.39 1014.71 1014.99 1015.21 1015.33 1015.39 1015.39 1015.41 1015.46 1015.58 1015.78 1016.03 1016.29 1016.54 1016.73 1016.87 1016.96 1017.02 1017.10 1017.21 1017.36 1017.56 1017.78 1018.01 1018.21 1018.39 1018.55 1018.69 1018.85
1009.69 1009.88 1010.22 1010.72 1011.31 1011.93 1012.49 1012.95 1013.29 1013.52 1013.69 1013.86 1014.05 1014.29 1014.56 1014.84 1015.08 1015.26 1015.35 1015.37 1015.37 1015.39 1015.46 1015.61 1015.83 1016.11 1016.41 1016.68 1016.89 1017.05 1017.15 1017.23 1017.32 1017.45 1017.61 1017.82 1018.04 1018.26 1018.45 1018.62 1018.77 1018.92 1019.10
1009.83 1010.04 1010.42 1010.95 1011.57 1012.21 1012.77 1013.23 1013.55 1013.76 1013.91 1014.04 1014.20 1014.41 1014.65 1014.90 1015.11 1015.26 1015.34 1015.36 1015.37 1015.40 1015.49 1015.67 1015.92 1016.23 1016.54 1016.82 1017.04 1017.20 1017.32 1017.41 1017.51 1017.65 1017.82 1018.02 1018.24 1018.45 1018.63 1018.79 1018.93 1019.08 1019.27
1010.11 1010.32 1010.71 1011.25 1011.88 1012.50 1013.04 1013.47 1013.75 1013.93 1014.04 1014.14 1014.28 1014.46 1014.68 1014.91 1015.10 1015.25 1015.33 1015.36 1015.39 1015.45 1015.56 1015.76 1016.03 1016.34 1016.65 1016.93 1017.15 1017.31 1017.42 1017.52 1017.63 1017.76 1017.94 1018.14 1018.35 1018.54 1018.71 1018.85 1018.99 1019.15 1019.34
1010.47 1010.68 1011.07 1011.59 1012.19 1012.77 1013.27 1013.64 1013.88 1014.02 1014.10 1014.18 1014.30 1014.47 1014.67 1014.89 1015.09 1015.24 1015.33 1015.38 1015.42 1015.50 1015.63 1015.84 1016.10 1016.40 1016.69 1016.95 1017.15 1017.30 1017.41 1017.51 1017.62 1017.77 1017.95 1018.15 1018.35 1018.53 1018.68 1018.81 1018.94 1019.10 1019.30
1010.88 1011.08 1011.45 1011.94 1012.49 1013.01 1013.44 1013.75 1013.94 1014.04 1014.09 1014.16 1014.28 1014.45 1014.66 1014.88 1015.09 1015.24 1015.34 1015.40 1015.45 1015.52 1015.65 1015.84 1016.08 1016.36 1016.62 1016.85 1017.03 1017.16 1017.27 1017.37 1017.49 1017.64 1017.83 1018.03 1018.23 1018.41 1018.56 1018.68 1018.80 1018.95 1019.16
1011.29 1011.49 1011.83 1012.28 1012.76 1013.20 1013.55 1013.80 1013.93 1014.00 1014.04 1014.12 1014.24 1014.43 1014.65 1014.88 1015.09 1015.24 1015.34 1015.39 1015.43 1015.49 1015.59 1015.75 1015.96 1016.19 1016.42 1016.61 1016.77 1016.89 1016.99 1017.10 1017.23 1017.40 1017.60 1017.81 1018.02 1018.20 1018.34 1018.46 1018.58 1018.73 1018.94
1011.67 1011.88 1012.20 1012.60 1013.00 1013.35 1013.62 1013.80 1013.89 1013.93 1013.97 1014.05 1014.20 1014.41 1014.65 1014.89 1015.09 1015.24 1015.31 1015.35 1015.36 1015.38 1015.45 1015.56 1015.72 1015.91 1016.10 1016.27 1016.40 1016.52 1016.62 1016.73 1016.88 1017.06 1017.27 1017.50 1017.71 1017.90 1018.06 1018.19 1018.31 1018.46 1018.67
1012.03 1012.26 1012.56 1012.89 1013.22 1013.48 1013.67 1013.77 1013.82 1013.84 1013.89 1013.99 1014.16 1014.38 1014.64 1014.88 1015.08 1015.20 1015.26 1015.26 1015.24 1015.22 1015.24 1015.31 1015.43 1015.57 1015.73 1015.87 1015.99 1016.09 1016.20 1016.32 1016.47 1016.66 1016.87 1017.11 1017.33 1017.54 1017.71 1017.85 1017.99 1018.15 1018.36
1012.37 1012.62 1012.90 1013.18 1013.42 1013.59 1013.70 1013.74 1013.75 1013.76 1013.81 1013.93 1014.11 1014.35 1014.61 1014.85 1015.03 1015.15 1015.18 1015.15 1015.10 1015.05 1015.03 1015.06 1015.14 1015.25 1015.37 1015.49 1015.59 1015.69 1015.78 1015.89 1016.03 1016.21 1016.42 1016.65 1016.88 1017.09 1017.28 1017.44 1017.60 1017.78 1018.00
1012.72 1012.97 1013.22 1013.44 1013.60 1013.69 1013.73 1013.72 1013.69 1013.69 1013.75 1013.87 1014.07 1014.31 1014.56 1014.79 1014.96 1015.06 1015.08 1015.04 1014.97 1014.91 1014.87 1014.88 1014.93 1015.01 1015.11 1015.20 1015.28 1015.35 1015.42 1015.50 1015.61 1015.75 1015.93 1016.13 1016.34 1016.55 1016.74 1016.93 1017.12 1017.33 1017.58
1013.06 1013.31 1013.51 1013.67 1013.76 1013.78 1013.76 1013.71 1013.67 1013.66 1013.71 1013.84 1014.02 1014.25 1014.49 1014.71 1014.87 1014.97 1014.99 1014.96 1014.90 1014.84 1014.81 1014.81 1014.84 1014.90 1014.97 1015.04 1015.09 1015.12 1015.14 1015.16 1015.20 1015.27 1015.38 1015.53 1015.70 1015.88 1016.08 1016.29 1016.52 1016.77 1017.06
1013.39 1013.60 1013.76 1013.85 1013.88 1013.86 1013.80 1013.74 1013.69 1013.68 1013.72 1013.84 1014.00 1014.21 1014.42 1014.62 1014.77 1014.87 1014.92 1014.92 1014.89 1014.86 1014.85 1014.86 1014.89 1014.93 1014.97 1015.00 1015.00 1014.97 1014.92 1014.86 1014.80 1014.78 1014.79 1014.85 1014.95 1015.10 1015.29 1015.51 1015.77 1016.07 1016.41
1013.69 1013.84 1013.94 1013.97 1013.96 1013.92 1013.85 1013.80 1013.76 1013.75 1013.80 1013.89 1014.02 1014.19 1014.37 1014.54 1014.69 1014.80 1014.88 1014.92 1014.94 1014.96 1014.98 1015.00 1015.03 1015.06 1015.06 1015.04 1014.98 1014.87 1014.73 1014.57 1014.41 1014.26 1014.16 1014.11 1014.12 1014.21 1014.37 1014.60 1014.89 1015.24 1015.63
1013.91 1014.00 1014.03 1014.02 1013.99 1013.95 1013.91 1013.89 1013.88 1013.89 1013.93 1014.00 1014.10 1014.21 1014.35 1014.48 1014.62 1014.74 1014.85 1014.94 1015.02 1015.08 1015.14 1015.18 1015.20 1015.20 1015.17 1015.10 1014.97 1014.79 1014.56 1014.30 1014.01 1013.74 1013.51 1013.33 1013.25 1013.26 1013.37 1013.59 1013.90 1014.29 1014.75
1014.04 1014.05 1014.03 1014.00 1013.97 1013.96 1013.97 1014.00 1014.05 1014.09 1014.14 1014.18 1014.23 1014.29 1014.36 1014.46 1014.57 1014.70 1014.83 1014.96 1015.08 1015.19 1015.26 1015.31 1015.33 1015.31 1015.24 1015.11 1014.93 1014.68 1014.37 1014.02 1013.63 1013.24 1012.88 1012.59 1012.39 1012.31 1012.37 1012.56 1012.87 1013.29 1013.79
1014.08 1014.02 1013.95 1013.90 1013.90 1013.94 1014.02 1014.13 1014.24 1014.32 1014.38 1014.40 1014.40 1014.39 1014.41 1014.45 1014.53 1014.65 1014.79 1014.95 1015.09 1015.22 1015.31 1015.36 1015.36 1015.31 1015.20 1015.04 1014.82 1014.53 1014.17 1013.75 1013.28 1012.80 1012.33 1011.93 1011.63 1011.45 1011.43 1011.58 1011.87 1012.30 1012.82
1014.01 1013.90 1013.80 1013.76 1013.79 1013.89 1014.05 1014.24 1014.42 1014.54 1014.61 1014.62 1014.57 1014.51 1014.46 1014.45 1014.49 1014.58 1014.72 1014.87 1015.03 1015.15 1015.24 1015.27 1015.26 1015.18 1015.06 1014.88 1014.64 1014.33 1013.95 1013.50 1012.99 1012.45 1011.91 1011.41 1011.01 1010.74 1010.64 1010.71 1010.96 1011.37 1011.89
1013.89 1013.74 1013.63 1013.59 1013.66 1013.82 1014.05 1014.31 1014.54 1014.72 1014.80 1014.79 1014.71 1014.60 1014.49 1014.42 1014.42 1014.48 1014.59 1014.73 1014.87 1014.99 1015.05 1015.07 1015.03 1014.94 1014.80 1014.62 1014.39 1014.10 1013.74 1013.30 1012.79 1012.22 1011.63 1011.06 1010.58 1010.22 1010.02 1010.01 1010.19 1010.54 1011.03
1013.76 1013.59 1013.47 1013.44 1013.53 1013.73 1014.01 1014.32 1014.59 1014.79 1014.89 1014.87 1014.77 1014.62 1014.47 1014.36 1014.32 1014.34 1014.43 1014.54 1014.65 1014.73 1014.77 1014.76 1014.70 1014.60 1014.47 1014.31 1014.11 1013.87 1013.55 1013.15 1012.67 1012.10 1011.50 1010.89 1010.33 1009.89 1009.59 1009.49 1009.58 1009.85 1010.28
1013.67 1013.49 1013.36 1013.33 1013.42 1013.63 1013.93 1014.26 1014.55 1014.76 1014.86 1014.84 1014.73 1014.57 1014.39 1014.26 1014.18 1014.18 1014.23 1014.31 1014.38 1014.43 1014.44 1014.40 1014.32 1014.21 1014.10 1013.97 1013.82 1013.64 1013.39 1013.05 1012.61 1012.08 1011.47 1010.84 1010.23 1009.71 1009.33 1009.13 1009.12 1009.30 1009.64
1013.66 1013.49 1013.35 1013.30 1013.37 1013.56 1013.83 1014.14 1014.42 1014.63 1014.73 1014.71 1014.60 1014.43 1014.25 1014.11 1014.02 1013.99 1014.01 1014.06 1014.10 1014.11 1014.08 1014.01 1013.91 1013.81 1013.71 1013.62 1013.52 1013.40 1013.22 1012.96 1012.58 1012.09 1011.51 1010.87 1010.23 1009.66 1009.20 1008.90 1008.79 1008.87 1009.12
Thickness
5813 5812 5809 5805 5802 5799 5796 5794 5792 5790 5789 5786 5784 5782 5779 5777 5774 5772 5770 5769 5767 5766 5764 5763 5762 5761 5760 5759 5758 5757 5756 5755 5753 5752 5751 5749 5748 5747 5745 5745 5744 5743 5741
5820 5814 5809 5805 5801 5797 5794 5792 5789 5787 5786 5784 5782 5780 5778 5775 5773 5771 5769 5767 5766 5764 5763 5762 5761 5760 5758 5757 5756 5755 5754 5753 5752 5751 5750 5748 5747 5746 5745 5744 5743 5742 5740
5820 5814 5808 5803 5800 5796 5792 5789 5787 5784 5782 5781 5779 5777 5775 5773 5771 5769 5767 5766 5764 5763 5761 5760 5759 5757 5756 5755 5754 5753 5752 5751 5750 5749 5748 5747 5746 5745 5744 5743 5742 5741 5739
5818 5812 5807 5802 5797 5794 5790 5787 5784 5782 5780 5777 5776 5774 5772 5771 5769 5767 5765 5764 5762 5761 5759 5758 5757 5755 5754 5753 5752 5751 5750 5749 5748 5747 5746 5745 5745 5744 5743 5742 5740 5739 5738
5815 5810 5805 5800 5795 5791 5788 5785 5782 5779 5777 5775 5773 5771 5769 5767 5766 5765 5763 5761 5760 5759 5757 5755 5754 5753 5751 5750 5749 5749 5748 5747 5746 5745 5744 5744 5743 5743 5742 5741 5740 5738 5737
5812 5807 5803 5798 5793 5789 5785 5782 5779 5777 5774 5772 5770 5768 5766 5765 5763 5762 5760 5759 5757 5756 5754 5753 5751 5750 5749 5748 5747 5746 5745 5744 5743 5743 5742 5742 5741 5741 5740 5739 5738 5737 5736
5809 5805 5801 5796 5791 5786 5783 5779 5777 5774 5771 5769 5767 5766 5764 5762 5760 5759 5757 5756 5755 5753 5751 5750 5748 5747 5746 5745 5744 5743 5743 5742 5741 5740 5740 5739 5739 5739 5738 5738 5737 5736 5735
5806 5802 5797 5793 5788 5784 5780 5777 5774 5771 5769 5767 5765 5763 5761 5759 5758 5756 5754 5753 5752 5750 5748 5747 5745 5744 5743 5742 5741 5740 5740 5739 5739 5738 5737 5737 5737 5736 5736 5736 5735 5735 5734
5801 5797 5793 5789 5785 5781 5777 5774 5771 5768 5766 5764 5762 5760 5758 5757 5755 5753 5752 5750 5748 5747 5745 5743 5742 5741 5740 5738 5738 5737 5736 5736 5736 5735 5735 5735 5735 5735 5734 5734 5734 5733 5733
5795 5791 5789 5785 5781 5778 5774 5771 5768 5765 5763 5761 5760 5758 5756 5754 5752 5750 5749 5747 5745 5744 5742 5740 5738 5737 5736 5735 5735 5734 5733 5733 5733 5733 5733 5733 5733 5733 5732 5732 5732 5732 5731
5788 5786 5784 5780 5776 5773 5770 5768 5765 5762 5760 5758 5757 5755 5753 5751 5749 5747 5746 5744 5742 5741 5739 5738 5735 5734 5733 5732 5731 5731 5731 5730 5730 5730 5730 5730 5730 5731 5731 5731 5730 5730 5730
5780 5780 5778 5775 5771 5768 5765 5763 5761 5759 5757 5755 5754 5752 5750 5748 5746 5744 5742 5741 5739 5738 5736 5735 5733 5731 5729 5728 5728 5728 5728 5728 5727 5727 5728 5728 5728 5729 5729 5729 5729 5729 5729
5776 5774 5772 5769 5765 5762 5759 5757 5756 5754 5752 5751 5749 5748 5746 5744 5742 5740 5738 5737 5736 5734 5733 5731 5730 5728 5727 5725 5725 5724 5725 5725 5725 5725 5726 5726 5727 5727 5728 5728 5728 5728 5727
5769 5767 5766 5763 5759 5756 5753 5752 5750 5748 5746 5745 5745 5744 5742 5740 5739 5737 5735 5733 5731 5730 5729 5728 5726 5725 5724 5723 5722 5721 5721 5721 5723 5723 5724 5724 5725 5726 5727 5727 5727 5727 5727
5763 5762 5760 5757 5753 5750 5747 5745 5743 5741 5739 5739 5739 5739 5738 5736 5735 5733 5731 5728 5727 5726 5725 5725 5724 5722 5721 5720 5719 5719 5719 5719 5720 5721 5722 5723 5724 5725 5726 5726 5726 5727 5726
5758 5757 5755 5750 5747 5745 5741 5739 5737 5736 5734 5734 5734 5734 5733 5732 5730 5728 5726 5724 5723 5722 5721 5721 5720 5719 5718 5718 5717 5716 5716 5716 5717 5718 5720 5721 5723 5724 5725 5726 5726 5726 5725
5753 5752 5749 5744 5742 5739 5737 5736 5735 5732 5730 5728 5727 5728 5728 5727 5725 5724 5722 5720 5719 5718 5717 5716 5715 5714 5714 5714 5713 5713 5713 5714 5715 5716 5718 5719 5721 5722 5724 5725 5726 5726 5726
5748 5747 5745 5742 5738 5734 5732 5731 5730 5728 5725 5723 5722 5722 5722 5721 5720 5718 5716 5714 5713 5713 5713 5711 5710 5709 5709 5709 5710 5711 5711 5712 5713 5714 5715 5717 5719 5721 5722 5724 5725 5726 5725
5742 5741 5739 5737 5733 5730 5728 5725 5722 5720 5719 5718 5718 5718 5717 5716 5714 5712 5710 5708 5707 5707 5706 5706 5705 5704 5704 5705 5706 5708 5709 5709 5711 5711 5713 5715 5716 5719 5720 5722 5724 5725 5725
5737 5736 5734 5731 5728 5726 5723 5719 5717 5714 5713 5713 5713 5712 5711 5709 5707 5705 5703 5701 5700 5700 5699 5699 5698 5699 5699 5700 5702 5705 5707 5708 5708 5709 5712 5714 5715 5717 5719 5720 5722 5724 5725
5730 5729 5727 5725 5723 5721 5717 5713 5709 5707 5706 5706 5705 5704 5703 5701 5699 5697 5695 5694 5693 5692 5692 5692 5692 5692 5693 5695 5695 5698 5702 5705 5707 5708 5709 5711 5714 5716 5717 5718 5719 5722 5724
5725 5724 5722 5720 5718 5716 5713 5710 5706 5703 5700 5699 5697 5696 5694 5693 5691 5689 5688 5687 5686 5684 5684 5684 5684 5684 5686 5688 5687 5688 5690 5696 5702 5707 5708 5709 5712 5713 5714 5716 5717 5719 5722
5721 5720 5720 5717 5714 5711 5708 5704 5700 5696 5692 5690 5688 5687 5686 5684 5683 5681 5680 5679 5678 5677 5675 5675 5676 5676 5677 5679 5681 5681 5681 5685 5692 5699 5703 5706 5707 5709 5711 5714 5716 5718 5720
5718 5717 5715 5712 5708 5705 5701 5697 5693 5688 5684 5682 5680 5678 5677 5676 5674 5673 5672 5671 5670 5669 5668 5668 5668 5668 5669 5670 5673 5676 5677 5680 5680 5686 5694 5699 5702 5704 5707 5711 5714 5716 5718
5715 5712 5710 5706 5702 5699 5695 5691 5687 5682 5678 5675 5672 5670 5668 5667 5665 5664 5664 5662 5661 5660 5660 5659 5659 5659 5660 5662 5663 5666 5669 5672 5675 5676 5682 5689 5694 5699 5703 5708 5711 5714 5717
5711 5709 5705 5701 5697 5693 5690 5685 5680 5676 5671 5667 5664 5662 5659 5657 5656 5656 5654 5653 5652 5652 5651 5651 5651 5651 5652 5653 5655 5657 5660 5663 5666 5669 5674 5679 5684 5691 5698 5703 5707 5711 5714